Home > Weather > Narva > Past weeks

Flag for Estonia Past Weather in Narva, Estonia — Yesterday and Last 2 Weeks

Now
61 °F

Refreshingly cool.


Feels Like: 61 °F
Forecast: 47 / 67 °F
Wind: 5 mph from Northwest

Location: Narva

Current Time: May 27, 2016 at 3:20:58 PM

Latest Report: May 27, 2016 at 2:00 PM


Visibility: N/A

Pressure: 30.19 "Hg

Humidity: 53%

Dew Point: 44 °F

Location of NarvaLocation

Past Weather in Narva — Graph

°F

Narva Temperature Yesterday

Maximum temperature yesterday: 66 °F (at 1:00 PM)
Minimum temperature yesterday: 54 °F (at 10:00 PM)
Average temperature yesterday: 57 °F

High & Low Weather Summary for the Past Weeks

 TemperatureHumidityPressure
High75 °F (May 24, 3:00 PM)100% (May 23, 3:00 AM)30.19 "Hg (May 23, 3:00 AM)
Low37 °F (May 20, 5:00 AM)31% (May 13, 4:00 PM)29.71 "Hg (May 26, 4:00 AM)
Average56 °F73%29.92 "Hg
* Reported May 12 2:00 PM — May 27 2:00 PM, Narva, Weather by CustomWeather, © 2016

Note: Actual official high and low records may vary slightly from our data, if they occured in-between our weather recording intervals... More about our weather records

Advertising

Narva Weather History for the Previous 24 Hours

Scroll right to see more
 ConditionsComfort  
Time TempWeatherWind HumidityBarometerVisibility
2:00 PM
Fri, May 27
61 °FRefreshingly cool.5 mph53%30.19 "HgN/A
1:00 PM61 °FRefreshingly cool.5 mph52%30.18 "HgN/A
12:00 PM60 °FCool.3 mph61%30.16 "HgN/A
11:00 AM58 °FCool.2 mph63%30.16 "HgN/A
10:00 AM57 °FCool.2 mph65%30.14 "HgN/A
9:00 AM55 °FCool.3 mph68%30.12 "HgN/A
8:00 AM54 °FCool.3 mph74%30.11 "HgN/A
7:00 AM52 °FCool.2 mph82%30.09 "HgN/A
6:00 AM51 °FCool.2 mph85%30.07 "HgN/A
5:00 AM50 °FCool.3 mph88%30.06 "HgN/A
4:00 AM51 °FCool.2 mph88%30.04 "HgN/A
3:00 AM52 °FCool.2 mph88%30.03 "HgN/A
2:00 AM53 °FCool.2 mph89%30.02 "HgN/A
1:00 AM53 °FCool.1 mph88%30.00 "HgN/A
12:00 AM53 °FCool.2 mph87%29.99 "HgN/A
11:00 PM
Thu, May 26
54 °FCool.2 mph85%29.97 "HgN/A
10:00 PM54 °FCool.2 mph85%29.95 "HgN/A
9:00 PM54 °FCool.3 mph87%29.93 "HgN/A
8:00 PM55 °FCool.3 mph88%29.91 "HgN/A
7:00 PM56 °FCool.3 mph88%29.90 "HgN/A
6:00 PM56 °FCool.5 mph90%29.88 "HgN/A
5:00 PM56 °FCool.3 mph94%29.85 "HgN/A
4:00 PM56 °FCool.6 mph94%29.84 "HgN/A
3:00 PM58 °FCool.6 mph93%29.82 "HgN/A
Weather by CustomWeather, © 2016

See weather overviewHow to use our weather pages